• In Belarus
  • List of Countries
  • For 7 days
  • Water Temperature
  • Satellite Maps
  • Weather Map
  • Weather Widgets
  • user-avatar
    Login

    Hourly Weather Wallisellen

    Today, 12 December, Tuesday

    Time Temperature Precipitation Wind Pressure Humidity
    00:00 +2°C° 0.7 mm 3 mps 696 mmHg 90%
    01:00 +3°C° 0 mm 3 mps 697 mmHg 89%
    02:00 +1°C° 0.4 mm 4 mps 698 mmHg 89%
    03:00 +1°C° 0.4 mm 4 mps 700 mmHg 88%
    04:00 0°C° 0.4 mm 5 mps 701 mmHg 88%
    05:00 0°C° 0.3 mm 4 mps 702 mmHg 89%
    06:00 -1°C° 0.3 mm 4 mps 703 mmHg 90%
    07:00 -1°C° 0 mm 3 mps 705 mmHg 91%
    08:00 0°C° 0.2 mm 3 mps 706 mmHg 90%
    09:00 0°C° 0.2 mm 3 mps 707 mmHg 89%
    10:00 0°C° 0.2 mm 3 mps 707 mmHg 88%
    11:00 0°C° 0.2 mm 3 mps 708 mmHg 87%
    12:00 +1°C° 0.2 mm 3 mps 709 mmHg 85%
    13:00 +1°C° 0.2 mm 3 mps 709 mmHg 84%
    14:00 +2°C° 0.2 mm 2 mps 710 mmHg 86%
    15:00 +1°C° 0.2 mm 2 mps 710 mmHg 87%
    16:00 +1°C° 0.2 mm 2 mps 711 mmHg 89%
    17:00 -1°C° 0.1 mm 2 mps 712 mmHg 90%
    18:00 -2°C° 0.1 mm 2 mps 712 mmHg 91%
    19:00 0°C° 0.1 mm 1 mps 713 mmHg 93%
    20:00 -1°C° 0 mm 1 mps 713 mmHg 93%
    21:00 -1°C° 0 mm 1 mps 714 mmHg 93%
    22:00 -2°C° 0 mm 1 mps 715 mmHg 93%
    23:00 -2°C° 0 mm 1 mps 715 mmHg 93%

    Tomorrow, 13 December, Wednesday

    Time Temperature Precipitation Wind Pressure Humidity
    00:00 -2°C° 0 mm 1 mps 715 mmHg 92%
    01:00 -3°C° 0 mm 1 mps 716 mmHg 91%
    02:00 -3°C° 0 mm 1 mps 716 mmHg 90%
    03:00 -5°C° 0 mm 2 mps 716 mmHg 89%
    04:00 -5°C° 0 mm 2 mps 716 mmHg 87%
    05:00 -5°C° 0 mm 2 mps 716 mmHg 85%
    06:00 -6°C° 0 mm 2 mps 716 mmHg 83%
    07:00 -6°C° 0 mm 2 mps 716 mmHg 82%
    08:00 -5°C° 0 mm 2 mps 716 mmHg 78%
    09:00 -4°C° 0 mm 2 mps 715 mmHg 74%
    10:00 -3°C° 0 mm 2 mps 715 mmHg 70%
    11:00 -1°C° 0 mm 2 mps 714 mmHg 67%
    12:00 +2°C° 0 mm 2 mps 713 mmHg 64%
    13:00 +3°C° 0 mm 2 mps 712 mmHg 61%
    14:00 +3°C° 0.1 mm 2 mps 711 mmHg 65%
    15:00 +3°C° 0.1 mm 2 mps 711 mmHg 69%
    16:00 +2°C° 0.1 mm 2 mps 710 mmHg 73%
    17:00 +2°C° 0.5 mm 2 mps 710 mmHg 75%
    18:00 +2°C° 0.5 mm 3 mps 710 mmHg 78%
    19:00 +2°C° 0.5 mm 3 mps 710 mmHg 80%
    20:00 +2°C° 0.3 mm 3 mps 709 mmHg 81%
    21:00 +1°C° 0.3 mm 4 mps 709 mmHg 82%
    22:00 +1°C° 0.3 mm 4 mps 708 mmHg 83%
    23:00 +1°C° 0.6 mm 4 mps 708 mmHg 83%

    Day after tomorrow, 14 December, Thursday

    Time Temperature Precipitation Wind Pressure Humidity
    00:00 +3°C° 0.6 mm 4 mps 707 mmHg 84%
    01:00 +2°C° 0.6 mm 5 mps 707 mmHg 85%
    02:00 +3°C° 0.3 mm 5 mps 707 mmHg 85%
    03:00 +3°C° 0.3 mm 5 mps 707 mmHg 86%
    04:00 +4°C° 0.3 mm 6 mps 707 mmHg 86%
    05:00 +3°C° 0.3 mm 6 mps 707 mmHg 87%
    06:00 +3°C° 0.3 mm 5 mps 707 mmHg 88%
    07:00 +3°C° 0.3 mm 5 mps 707 mmHg 89%
    08:00 +4°C° 0.2 mm 4 mps 707 mmHg 89%
    09:00 +3°C° 0.2 mm 4 mps 707 mmHg 89%
    10:00 +3°C° 0.2 mm 4 mps 707 mmHg 89%
    11:00 +4°C° 0.2 mm 4 mps 707 mmHg 88%
    12:00 +4°C° 0.2 mm 4 mps 706 mmHg 86%
    13:00 +5°C° 0.2 mm 4 mps 706 mmHg 85%
    14:00 +4°C° 0.1 mm 4 mps 705 mmHg 86%
    15:00 +4°C° 0.1 mm 3 mps 704 mmHg 88%
    16:00 +4°C° 0.1 mm 3 mps 703 mmHg 89%
    17:00 +4°C° 0.2 mm 4 mps 702 mmHg 87%
    18:00 +4°C° 0.2 mm 4 mps 702 mmHg 85%
    19:00 +2°C° 0.2 mm 5 mps 702 mmHg 84%
    20:00 +3°C° 0.6 mm 5 mps 701 mmHg 82%
    21:00 +3°C° 0.6 mm 6 mps 701 mmHg 80%
    22:00 +3°C° 0.6 mm 7 mps 701 mmHg 79%
    23:00 +2°C° 2.1 mm 6 mps 702 mmHg 82%

    15 December, Friday

    Time Temperature Precipitation Wind Pressure Humidity
    00:00 +1°C° 2.1 mm 5 mps 702 mmHg 85%
    01:00 0°C° 2.1 mm 4 mps 702 mmHg 88%
    02:00 0°C° 0.8 mm 4 mps 702 mmHg 89%
    03:00 0°C° 0.8 mm 4 mps 702 mmHg 90%
    04:00 0°C° 0.8 mm 3 mps 702 mmHg 91%
    05:00 0°C° 0.3 mm 3 mps 703 mmHg 90%
    06:00 0°C° 0.3 mm 3 mps 703 mmHg 90%
    07:00 0°C° 0.3 mm 3 mps 703 mmHg 89%
    08:00 0°C° 0.2 mm 3 mps 703 mmHg 89%
    09:00 0°C° 0.2 mm 3 mps 704 mmHg 89%
    10:00 0°C° 0.2 mm 3 mps 704 mmHg 89%
    11:00 +1°C° 0 mm 3 mps 704 mmHg 86%
    12:00 0°C° 0 mm 4 mps 704 mmHg 84%
    13:00 +1°C° 0 mm 4 mps 704 mmHg 81%
    14:00 +1°C° 0 mm 3 mps 703 mmHg 83%
    15:00 +2°C° 0 mm 2 mps 703 mmHg 84%
    16:00 +1°C° 0 mm 2 mps 703 mmHg 86%
    17:00 +1°C° 0.2 mm 2 mps 703 mmHg 86%
    18:00 -1°C° 0.2 mm 2 mps 703 mmHg 87%
    19:00 -1°C° 0.2 mm 3 mps 704 mmHg 87%
    20:00 -1°C° 0.6 mm 3 mps 704 mmHg 88%
    21:00 -1°C° 0.6 mm 4 mps 705 mmHg 89%
    22:00 -1°C° 0.6 mm 4 mps 706 mmHg 90%
    23:00 -2°C° 0.2 mm 4 mps 706 mmHg 90%

    16 December, Saturday

    Time Temperature Precipitation Wind Pressure Humidity
    00:00 -2°C° 0.2 mm 4 mps 707 mmHg 90%
    01:00 -2°C° 0.2 mm 4 mps 707 mmHg 90%
    02:00 -2°C° 0.1 mm 3 mps 708 mmHg 91%
    03:00 -2°C° 0.1 mm 3 mps 708 mmHg 91%
    04:00 -2°C° 0.1 mm 2 mps 708 mmHg 92%
    05:00 -3°C° 0.2 mm 2 mps 709 mmHg 92%
    06:00 -3°C° 0.2 mm 2 mps 709 mmHg 92%
    07:00 -1°C° 0.2 mm 1 mps 710 mmHg 92%
    08:00 0°C° 0.1 mm 1 mps 710 mmHg 91%
    09:00 0°C° 0.1 mm 1 mps 711 mmHg 91%
    10:00 -2°C° 0.1 mm 2 mps 711 mmHg 90%
    11:00 -1°C° 0 mm 2 mps 711 mmHg 89%
    12:00 +1°C° 0 mm 2 mps 711 mmHg 88%
    13:00 +2°C° 0 mm 2 mps 711 mmHg 87%
    14:00 +1°C° 0.1 mm 2 mps 712 mmHg 88%
    15:00 +2°C° 0.1 mm 1 mps 712 mmHg 90%
    16:00 +1°C° 0.1 mm 1 mps 712 mmHg 92%
    17:00 +1°C° 0.1 mm 1 mps 713 mmHg 92%
    18:00 0°C° 0.1 mm 1 mps 713 mmHg 93%
    19:00 0°C° 0.1 mm 1 mps 714 mmHg 94%
    20:00 0°C° 0.2 mm 1 mps 714 mmHg 94%
    21:00 -1°C° 0.2 mm 1 mps 715 mmHg 94%
    22:00 -1°C° 0.2 mm 1 mps 715 mmHg 95%
    23:00 -1°C° 0.1 mm 1 mps 715 mmHg 95%

    17 December, Sunday

    Time Temperature Precipitation Wind Pressure Humidity
    00:00 -1°C° 0.1 mm 1 mps 716 mmHg 95%
    01:00 -2°C° 0.1 mm 1 mps 716 mmHg 95%
    02:00 -2°C° 0.1 mm 1 mps 716 mmHg 95%
    03:00 -2°C° 0.1 mm 1 mps 716 mmHg 95%
    04:00 -2°C° 0.1 mm 1 mps 716 mmHg 95%
    05:00 -3°C° 0 mm 1 mps 717 mmHg 94%
    06:00 -3°C° 0 mm 1 mps 717 mmHg 94%
    07:00 -3°C° 0 mm 1 mps 718 mmHg 94%
    08:00 -2°C° 0 mm 1 mps 718 mmHg 92%
    09:00 -2°C° 0 mm 1 mps 719 mmHg 91%
    10:00 -1°C° 0 mm 1 mps 719 mmHg 89%
    11:00 0°C° 0 mm 1 mps 719 mmHg 87%
    12:00 0°C° 0 mm 1 mps 719 mmHg 85%
    13:00 +1°C° 0 mm 1 mps 719 mmHg 83%
    14:00 +1°C° 0 mm 1 mps 719 mmHg 85%
    15:00 0°C° 0 mm 1 mps 719 mmHg 87%
    16:00 -1°C° 0 mm 1 mps 720 mmHg 90%
    17:00 -1°C° 0 mm 1 mps 720 mmHg 90%
    18:00 -2°C° 0 mm 1 mps 721 mmHg 90%
    19:00 -3°C° 0 mm 1 mps 721 mmHg 90%
    20:00 -4°C° 0 mm 1 mps 722 mmHg 90%
    21:00 -4°C° 0 mm 1 mps 722 mmHg 89%
    22:00 -4°C° 0 mm 1 mps 722 mmHg 88%
    23:00 -6°C° 0 mm 1 mps 722 mmHg 88%
    Show more